[[{"header":{"parameterUnit":"m.s-1","parameterCategory":1,"la1":30.2991,"la2":30.254,"lo1":-89.0895,"lo2":-89.0444,"dy":0.0017,"dx":0.0017,"nx":28,"ny":28,"refTime":"2025-07-02T21:00:00:Z","depth":0,"parameterNumber":2,"parameterNumberName":"U-component_of_WINDS"},"data":[0,0,0,0,0,0,0,0,0,0,0,0,0,0,0,0,0,0,0,0,0,0,0,0,0,0,0,0,0,0,0,0,0,0,0,0,0,0,0,0,0,0,0,0,0,0,0,0,0,0,0,0,0,0,0,0,0,0,0.8411,0.8412,0,0.8509,0.851,0.8511,0.8466,0.8464,0.8461,0.8459,0.8564,0.8569,0.8574,0,0,0,0,0,0,0,0,0,0,0,0,0,0.8192,0.8196,0.8411,0.8412,0.8414,0.8509,0.851,0.8511,0.8467,0.8464,0.8461,0.8458,0.8562,0.8568,0.8574,0,0,0,0,0,0,0,0,0,0,0,0,0,0.8288,0.8198,0.8411,0.8403,0.8403,0.8508,0.851,0.8512,0.8467,0.8464,0.846,0.8457,0.856,0.8568,0.8575,0.8696,0,0,0.8599,0.8602,0,0,0,0,0,0,0,0,0.8283,0.8296,0.8403,0.8403,0.8404,0.8471,0.8471,0.8574,0.8468,0.8443,0.8459,0.8455,0.8537,0.8546,0.8572,0.8701,0.8705,0.8599,0.8604,0.8607,0.8609,0,0,0,0,0,0,0,0.8276,0.8292,0.845,0.8404,0.8405,0.8396,0.8406,0.849,0.8509,0.8445,0.8442,0.8454,0.8536,0.8565,0.8575,0.8707,0.8599,0.8606,0.861,0.8613,0.8942,0.8946,0,0,0,0,0,0,0.8269,0.8287,0.8447,0.8453,0.8333,0.8403,0.8414,0.8454,0.8508,0.8513,0.8457,0.8451,0.8554,0.8566,0.8578,0.8725,0.8607,0.8614,0.8619,0.8938,0.8943,0.8947,0,0,0,0,0,0,0.8264,0.8284,0.8443,0.8369,0.8388,0.8411,0.8456,0.8457,0.8486,0.8517,0.8521,0.8483,0.8551,0.8567,0.8667,0.8728,0.8618,0.8625,0.8933,0.8939,0.8945,0.9018,0,0,0,0,0,0,0.8258,0.8282,0.8327,0.837,0.8393,0.8529,0.8459,0.8462,0.8499,0.8493,0.8542,0.8547,0.855,0.8656,0.8675,0.8736,0.863,0.8928,0.8936,0.8943,0.9011,0.9026,0.904,0,0,0,0,0,0.8251,0.8344,0.8329,0.8349,0.8449,0.8532,0.8545,0.8545,0.8504,0.855,0.857,0.8546,0.8718,0.8667,0.8687,0.8752,0.8924,0.8934,0.8943,0.9004,0.9023,0.9039,0,0,0,0,0,0,0.8309,0.835,0.8334,0.8444,0.8485,0.8525,0.8583,0.8565,0.862,0.8612,0.8611,0.8622,0.8726,0.8749,0.8691,0.8873,0.8815,0.8829,0.8855,0.8873,0.8887,0.888,0.8637,0,0,0,0,0,0.8334,0.8397,0.843,0.8524,0.8545,0.8561,0.8597,0.8593,0.8636,0.8654,0.8681,0.8726,0.879,0.8832,0.8893,0.9013,0.9025,0.9068,0.9083,0.9094,0.9107,0.9175,0.9195,0.8978,0.8978,0.8978,0,0,0.8388,0.8418,0.8458,0.8536,0.8568,0.8635,0.8576,0.8649,0.8699,0.8666,0.8762,0.8784,0.8833,0.8944,0.8995,0.8966,0.9169,0.9106,0.9115,0.9122,0.9186,0.9207,0.9225,0.8984,0.8983,0.8982,0,0,0.852,0.8548,0.863,0.8663,0.8711,0.8721,0.8741,0.8784,0.8797,0.8892,0.8869,0.893,0.904,0.9077,0.911,0.9258,0.9238,0.9278,0.9354,0.942,0.9437,0.9453,0.9507,0.9527,0.929,0.929,0.929,0,0.8581,0.868,0.8675,0.8751,0.8787,0.8759,0.8844,0.8876,0.8942,0.8969,0.8936,0.9074,0.9105,0.9226,0.9262,0.9289,0.9314,0.9273,0.9435,0.945,0.9464,0.9517,0.9537,0.9295,0.9294,0.9294,0.9293,0,0.8754,0.8823,0.8884,0.8947,0.899,0.907,0.908,0.9125,0.9117,0.9131,0.9231,0.9267,0.9336,0.9364,0.9358,0.9484,0.9466,0.9434,0.9376,0.949,0.9539,0.9559,0.9302,0.93,0.9298,0.9297,0,0,0.8926,0.8986,0.9009,0.9038,0.9089,0.9144,0.9223,0.9289,0.9328,0.9375,0.9443,0.9537,0.9509,0.9547,0.9545,0.9602,0.972,0.9564,0.9565,0.9593,0.9864,0.9889,0.9912,0.9706,0.971,0.9713,0.9861,0,0.9063,0.9201,0.92,0.9328,0.9394,0.9368,0.9437,0.9478,0.9493,0.9552,0.957,0.9637,0.9593,0.9616,0.9672,0.9694,0.9775,0.9683,0.9772,0.9775,0.9762,0.9937,0.9963,1.0101,0.988,0.9883,0.9885,0,0.9242,0.9294,0.9429,0.9472,0.9499,0.9562,0.9623,0.9679,0.9725,0.9732,0.9775,0.9764,0.9848,0.9786,0.9902,0.984,0.9876,0.9893,0.9898,0.9908,0.9838,0.9954,1.0144,1.0166,0.9915,0.9913,0.9911,0,0.9357,0.946,0.9554,0.958,0.9632,0.9677,0.9702,0.9744,0.9784,0.9838,0.9864,0.9928,0.9963,1.0013,1.0021,0.9975,1.0139,1.0077,1.0149,1.0149,1.0186,1.0184,1.0387,1.0207,1.0206,1.0206,1.0206,0,0.9511,0.9595,0.9607,0.9665,0.9759,0.9758,0.9852,0.9873,0.9911,0.9974,0.9956,1.0016,1.0021,1.0084,1.0091,1.0188,1.0203,1.0213,1.0214,1.0216,1.0215,1.0241,1.0232,1.0212,1.021,1.0209,1.0208,0,0.9656,0.9666,0.9768,0.9809,0.9822,0.9889,0.9926,0.9983,0.9996,1.0077,1.0096,1.0118,1.0191,1.0203,1.0289,1.0294,1.041,1.04,1.0394,1.0394,1.0466,1.046,1.0694,1.0726,1.0523,1.0525,1.0527,0,0.9754,0.9818,0.9866,0.9907,0.9933,0.9999,1.004,1.0042,1.0085,1.0143,1.0194,1.0265,1.0321,1.044,1.0465,1.0531,1.0524,1.0602,1.0534,1.0535,1.0528,1.0525,1.0532,1.0616,1.0618,1.062,1.0621,0,0.9929,0.9932,0.999,1.0052,1.0101,1.015,1.0196,1.023,1.0239,1.0289,1.0363,1.0407,1.0495,1.0567,1.0633,1.066,1.0643,1.0642,1.0663,1.0666,1.066,1.0666,1.0432,1.0637,1.0635,1.0634,1.0633,1.0633,1.0055,1.0111,1.0154,1.0221,1.0256,1.03,1.0355,1.0376,1.0437,1.0508,1.0506,1.0588,1.0634,1.0721,1.0752,1.0818,1.0793,1.0822,1.083,1.0838,1.0845,1.0648,1.083,1.0829,1.0829,1.0828,1.0828,0,1.0231,1.0257,1.0318,1.0383,1.0436,1.0414,1.0464,1.0511,1.0583,1.0626,1.0683,1.0769,1.0838,1.0869,1.0938,1.0985,1.0979,1.1003,1.1,1.1007,1.0863,1.0839,1.1006,1.1006,1.1006,1.1006,1.1006,1.1006,1.0328,1.0423,1.0431,1.0544,1.057,1.0649,1.068,1.0721,1.0756,1.0853,1.091,1.0929,1.0968,1.104,1.1103,1.1111,1.1138,1.1166,1.117,1.1035,1.1017,1.1,1.0977,1.1171,1.1172,1.1309,1.131,1.1311]},{"header":{"parameterUnit":"m.s-1","parameterCategory":1,"la1":30.2991,"la2":30.254,"lo1":-89.0895,"lo2":-89.0444,"dy":0.0017,"dx":0.0017,"nx":28,"ny":28,"refTime":"2025-07-02T21:00:00:Z","depth":0,"parameterNumber":3,"parameterNumberName":"V-component_of_WINDS"},"data":[0,0,0,0,0,0,0,0,0,0,0,0,0,0,0,0,0,0,0,0,0,0,0,0,0,0,0,0,0,0,0,0,0,0,0,0,0,0,0,0,0,0,0,0,0,0,0,0,0,0,0,0,0,0,0,0,0,0,-0.0101,-0.0099,0,0.005,0.0052,0.0053,-0.0041,-0.0046,-0.005,-0.0054,0.01,0.0108,0.0116,0,0,0,0,0,0,0,0,0,0,0,0,0,-0.0474,-0.0466,-0.0101,-0.0099,-0.0097,0.005,0.0052,0.0054,-0.004,-0.0046,-0.0051,-0.0056,0.0097,0.0107,0.0117,0,0,0,0,0,0,0,0,0,0,0,0,0,-0.0316,-0.0464,-0.0101,-0.0126,-0.0127,0.0049,0.0052,0.0054,-0.0039,-0.0046,-0.0053,-0.0059,0.0094,0.0106,0.0118,0.0328,0,0,0.0156,0.0161,0,0,0,0,0,0,0,0,-0.0325,-0.0302,-0.0125,-0.0124,-0.0125,-0.0021,-0.0023,0.0146,-0.0038,-0.0073,-0.0054,-0.0062,0.0065,0.0079,0.0122,0.0335,0.0341,0.0157,0.0164,0.017,0.0173,0,0,0,0,0,0,0,-0.0336,-0.0309,-0.0041,-0.0122,-0.0122,-0.0147,-0.0131,0.0008,0.0032,-0.007,-0.0077,-0.0058,0.0063,0.011,0.0125,0.0344,0.0157,0.0168,0.0175,0.018,0.073,0.0737,0,0,0,0,0,0,-0.0344,-0.0318,-0.0046,-0.0037,-0.0243,-0.0134,-0.0118,-0.0048,0.003,0.0035,-0.0052,-0.0062,0.0093,0.0111,0.013,0.0377,0.017,0.0181,0.0188,0.0723,0.0731,0.0739,0,0,0,0,0,0,-0.0352,-0.0319,-0.0052,-0.0179,-0.0147,-0.0121,-0.0042,-0.0041,0.0005,0.0044,0.0047,-0.0008,0.0088,0.0113,0.0278,0.0381,0.0187,0.0198,0.0714,0.0725,0.0735,0.0875,0,0,0,0,0,0,-0.0362,-0.0321,-0.024,-0.0176,-0.014,0.0095,-0.0035,-0.0034,0.0027,0.0015,0.0086,0.0091,0.0085,0.026,0.029,0.0395,0.0208,0.0705,0.0719,0.0732,0.0861,0.0889,0.0913,0,0,0,0,0,-0.0375,-0.0205,-0.0235,-0.0202,-0.0038,0.0101,0.0122,0.0112,0.0036,0.0117,0.014,0.0089,0.0365,0.0278,0.0311,0.0421,0.0698,0.0715,0.0731,0.085,0.0884,0.0912,0,0,0,0,0,0,-0.0256,-0.0197,-0.023,-0.0034,0.0029,0.0085,0.0187,0.0149,0.0235,0.022,0.0203,0.022,0.0391,0.0422,0.0324,0.0624,0.0519,0.0543,0.0598,0.0631,0.0656,0.0645,0.0218,0,0,0,0,0,-0.0207,-0.0099,-0.0054,0.0114,0.0147,0.0162,0.0222,0.0208,0.0273,0.0299,0.0335,0.04,0.05,0.0567,0.0663,0.0865,0.0877,0.0956,0.0982,0.1003,0.1023,0.1128,0.1163,0.0792,0.0792,0.0792,0,0,-0.0105,-0.006,0.001,0.0139,0.0187,0.0297,0.0185,0.0309,0.039,0.0318,0.0475,0.0504,0.0574,0.0758,0.084,0.0789,0.1128,0.1023,0.104,0.1049,0.1148,0.1183,0.1214,0.0803,0.0801,0.0799,0,0,0.0138,0.0185,0.0327,0.0376,0.0449,0.0456,0.049,0.0552,0.0567,0.0724,0.0671,0.0767,0.0942,0.0993,0.1042,0.1298,0.1253,0.133,0.1465,0.1567,0.1596,0.1622,0.171,0.1743,0.135,0.135,0.1351,0,0.0256,0.0422,0.0406,0.0532,0.0589,0.0526,0.0669,0.0717,0.0818,0.0857,0.0798,0.1013,0.1056,0.1249,0.131,0.1353,0.1389,0.1322,0.1594,0.1619,0.1643,0.1727,0.1761,0.1359,0.1358,0.1357,0.1356,0,0.0562,0.0678,0.0784,0.088,0.0949,0.1083,0.1085,0.1156,0.1135,0.1148,0.1306,0.1355,0.1457,0.1501,0.1483,0.169,0.1655,0.1596,0.1489,0.1687,0.1766,0.1798,0.1371,0.1368,0.1366,0.1364,0,0,0.0888,0.0969,0.1009,0.105,0.1122,0.1211,0.134,0.1438,0.1498,0.1568,0.1674,0.1821,0.1764,0.182,0.1806,0.1895,0.2091,0.1824,0.1825,0.1869,0.2317,0.2361,0.2399,0.206,0.2067,0.2072,0.231,0,0.1133,0.1359,0.1346,0.1558,0.1662,0.1601,0.1713,0.1769,0.1783,0.1873,0.1888,0.1991,0.191,0.1942,0.2029,0.2049,0.218,0.2031,0.2157,0.2162,0.214,0.2441,0.2489,0.2712,0.2341,0.2347,0.2351,0,0.1451,0.1529,0.1751,0.1803,0.1846,0.1948,0.2034,0.2121,0.2181,0.2185,0.2244,0.2214,0.2341,0.2231,0.2405,0.2304,0.2354,0.2371,0.238,0.239,0.2268,0.2458,0.2784,0.2816,0.2399,0.2395,0.2392,0,0.1663,0.1824,0.1976,0.2013,0.2079,0.215,0.2181,0.2235,0.2293,0.2368,0.2405,0.2495,0.2543,0.2612,0.2605,0.2527,0.2781,0.2671,0.2785,0.2785,0.2842,0.2838,0.3179,0.2877,0.2876,0.2875,0.2875,0,0.1938,0.2075,0.2071,0.2165,0.2315,0.2297,0.2446,0.2469,0.2516,0.2611,0.2564,0.2654,0.264,0.273,0.2725,0.2867,0.289,0.2895,0.2892,0.2899,0.2898,0.2931,0.2915,0.2884,0.2882,0.2881,0.2879,0,0.2201,0.2204,0.2365,0.2413,0.2428,0.2536,0.2576,0.2663,0.2671,0.2792,0.2819,0.2833,0.2935,0.2934,0.3052,0.3048,0.3222,0.3202,0.3202,0.3197,0.331,0.3299,0.3683,0.3731,0.3399,0.3402,0.3405,0,0.2376,0.248,0.2537,0.2597,0.2631,0.2729,0.2787,0.2772,0.2834,0.2907,0.2985,0.3082,0.3159,0.3325,0.3344,0.3432,0.3412,0.3541,0.3426,0.3427,0.3411,0.3405,0.3413,0.3563,0.3567,0.357,0.3573,0,0.2685,0.268,0.2766,0.2852,0.2922,0.2989,0.305,0.3102,0.3092,0.3164,0.3267,0.3327,0.3444,0.354,0.3624,0.3653,0.3611,0.3608,0.3639,0.3647,0.3641,0.3643,0.3261,0.36,0.3597,0.3595,0.3594,0.3593,0.2908,0.2996,0.3048,0.3144,0.3188,0.3245,0.3328,0.3345,0.3431,0.3525,0.351,0.3624,0.3676,0.3784,0.382,0.3908,0.3863,0.3908,0.3919,0.393,0.3941,0.3628,0.3923,0.3922,0.3922,0.3921,0.3921,0,0.3213,0.3242,0.3331,0.3416,0.3491,0.3443,0.3507,0.3572,0.3673,0.3725,0.3801,0.3917,0.4008,0.4033,0.4121,0.4186,0.4168,0.4209,0.4204,0.421,0.3978,0.3942,0.4221,0.4221,0.4221,0.4221,0.4221,0.4221,0.338,0.3524,0.3525,0.3688,0.3717,0.3828,0.3868,0.3919,0.396,0.4091,0.4167,0.4182,0.4222,0.4311,0.4392,0.4396,0.4429,0.4478,0.4475,0.4257,0.4227,0.4198,0.4164,0.4486,0.4486,0.4699,0.4701,0.4703]}]]